Vertical_Velocity
-1 -1 -1 -1 -0 -1 -2 -1 -2 -1 -1 -0 -1 -1 -1 -1 -3 -7 -10 5 1 4 5 3 -1 -1 -5 6 9 -2 -11 -7 -1 2 -0 4 0 9 -2 -0 -9 -2 -3 -2 -0
-1 -1 -1 -1 -1 -1 -2 -1 -1 0 -0 -1 -1 -2 -1 -0 -2 -10 13 -4 0 -0 3 2 3 4 9 6 6 10 -8 -1 1 6 2 -1 0 -4 1 2 -6 -5 2 1 -2
-1 -1 -2 -1 -1 -1 -2 -1 -1 0 -1 -1 -2 -2 -1 -1 -1 4 -5 -3 -1 -2 4 2 0 2 8 7 -0 -3 1 -1 2 2 4 -0 -8 -3 -4 -4 -7 -8 -3 -0 0
-1 -1 -0 -0 -1 -0 -1 -1 -1 -1 -1 -0 -1 -1 -1 -1 -6 -1 -1 -1 -1 -1 2 -0 1 4 -4 1 3 -10 18 3 -0 2 3 -3 0 -2 -5 3 -2 -4 4 -6 -1
-1 -1 -1 -1 -1 -1 -1 -1 -2 -2 -1 -1 -2 -1 -1 -4 2 2 -3 -2 -3 -1 2 1 8 -2 -5 2 2 3 -10 7 16 -2 -7 -1 -1 5 3 1 3 -6 -4 -10 -7
-1 -1 -2 -2 -1 -1 -0 -1 -1 -2 -1 -1 -1 -1 -0 -0 -3 -1 -6 -4 -3 -3 1 2 0 -5 -3 1 -4 2 -8 -3 15 -2 -4 4 4 -4 2 -0 4 -0 -3 -6 -5
-1 -1 -2 -2 -2 -1 -0 -2 -2 -1 -3 -2 -2 1 -0 -1 -5 -2 0 3 -3 -3 -1 3 1 -2 -2 1 -0 -5 6 -6 5 6 3 -1 -1 -3 -1 1 -0 -2 2 -8 -6
-1 -1 -1 -1 -1 -1 -1 -0 -2 -2 -2 -2 -1 1 2 -2 2 1 2 2 0 -1 2 -0 -2 -2 -2 -3 -4 -3 15 -3 3 -1 -6 -1 -6 3 1 0 4 2 5 2 -5
-2 -1 -1 -1 -1 -1 -2 -2 -2 -0 -2 -1 -1 -0 1 1 -1 -1 2 6 4 0 2 1 -4 -1 -5 -4 2 1 -4 4 5 5 12 3 -5 -3 0 -2 -1 1 4 -1 -3
-2 -2 -2 -0 -1 0 -0 -1 -1 -1 -3 -2 -1 -0 -0 -2 -3 -4 -1 1 2 0 3 3 -0 -2 -4 -2 -1 -4 -5 4 6 -11 -4 3 -2 5 4 -3 -1 1 9 4 1
-1 -1 -2 -1 -1 0 -1 -3 -2 -5 -3 -0 -3 2 -1 -2 1 -2 -4 -2 1 1 -1 -1 -5 -14 -4 7 2 -3 2 -1 -11 54 9 -0 -10 7 8 -7 1 -2 -1 -1 -1
-1 -1 -1 -2 0 -2 -2 -4 -4 -4 1 -2 -2 -1 -1 -1 2 -1 -0 -1 -2 -3 4 1 -12 -0 1 3 -2 2 2 -4 -7 34 6 3 2 3 1 4 -7 -2 -4 -5 4
-0 -0 -0 -2 1 0 -1 -1 -2 -1 -6 4 0 2 -0 -1 -0 2 1 1 -0 -1 3 -0 -4 5 1 2 -4 7 -1 -2 3 -9 7 -3 -18 -4 -2 6 0 -4 -6 -8 -1
-1 0 1 -2 1 -1 -2 0 -1 2 -2 2 1 -0 -4 -0 -2 4 3 3 -2 -3 4 0 -1 1 2 -7 4 -7 9 1 -4 -8 -2 -6 -6 -6 -3 2 -4 5 -7 -5 6
-0 0 -0 0 -0 -2 1 1 -0 1 -2 4 2 -1 -2 3 2 -0 5 2 -2 -1 1 -4 -1 1 3 -15 9 -27 6 2 6 14 -1 -5 6 -4 -3 -8 3 -4 -9 5 2
-0 0 -1 2 -1 0 1 0 -1 1 -7 4 4 6 1 2 6 1 2 4 5 6 2 -5 -1 5 -5 12 0 11 -2 3 11 1 -2 -1 2 -8 -4 -0 3 -2 -3 7 4
0 -1 0 1 -3 -1 0 0 -1 -2 7 8 -1 1 6 2 4 3 1 -1 -4 -1 -6 3 -5 -2 5 1 0 5 4 -2 -1 -2 -10 -0 1 -13 3 -1 -4 2 1 7 -6
-1 1 -1 -3 0 0 0 0 -1 3 2 4 -5 -2 6 7 6 2 -4 -9 -4 -1 3 1 -2 -6 -0 -9 -4 2 7 -4 -5 -3 -6 3 -3 -7 1 -4 -3 5 -5 -5 -11
-1 -1 -2 -3 3 1 1 -2 1 -0 1 -3 3 9 3 5 1 6 -2 2 3 -3 1 -0 -10 8 0 4 2 1 -3 2 12 0 -1 -1 -1 -16 -2 -9 -1 3 -5 -1 -8
-1 -2 -1 1 2 2 2 -2 -2 2 2 3 2 -1 -2 1 7 -0 -1 3 1 -4 8 -3 -6 -2 12 6 3 4 3 -1 0 -4 -1 -2 -2 -16 10 -1 4 -2 -12 2 4
0 -2 1 1 1 1 -1 1 1 10 -2 -3 -1 0 3 4 1 -1 2 3 6 11 8 4 7 -2 9 -0 -2 9 -2 1 6 1 -8 -2 -11 -4 -3 1 1 -10 -8 -3 0
1 -1 2 3 2 1 -1 2 -4 1 2 -4 -3 -2 -1 4 1 2 8 3 2 0 -8 11 1 -5 -13 3 3 -2 -4 10 10 -3 -2 2 -26 4 -5 -6 -6 -17 -10 26 -3
-0 -0 0 -1 1 4 1 -1 -3 5 5 1 1 11 10 -2 4 -0 1 1 9 5 4 -3 -14 1 -7 -0 -7 -1 3 -1 8 7 -2 -3 -19 5 -5 -2 -5 -7 0 12 -11
3 -1 -0 -2 3 1 -2 1 3 4 4 0 -2 3 7 7 4 -4 -2 -2 1 3 3 3 2 -13 -18 -8 -5 -3 1 4 0 2 -4 -12 -17 3 2 1 -8 -8 -4 10 -8
0 -3 -7 -5 0 -2 -2 -1 2 -2 9 -2 5 1 0 -6 -0 -5 1 1 4 9 7 5 4 14 5 6 -1 -4 -2 3 5 2 -1 0 -3 5 -4 -2 1 -6 -6 -8 -1
1 1 -0 0 0 -1 -0 2 -2 -2 7 1 -2 1 3 -0 6 2 -2 6 3 -1 -2 4 2 -3 -6 9 9 1 0 3 -5 -2 -4 -4 -18 -2 -3 -10 -8 -6 0 -7 -4
1 1 1 -3 -1 2 -2 -3 2 -3 6 3 -5 -1 5 -2 -2 -1 3 -1 -1 -3 -4 -3 2 -4 -6 5 5 -3 -13 -2 6 2 5 -4 -8 18 0 -5 -12 -10 -14 -12 2
Height
3165 3165 3164 3164 3164 3164 3163 3162 3161 3161 3161 3161 3162 3164 3165 3168 3170 3173 3175 3179 3180 3181 3183 3184 3184 3185 3185 3184 3184 3181 3181 3178 3177 3177 3176 3175 3173 3172 3172 3172 3172 3171 3170 3171 3172
3163 3163 3162 3162 3162 3161 3161 3160 3159 3159 3159 3159 3160 3161 3163 3165 3168 3172 3177 3177 3179 3180 3181 3183 3184 3185 3185 3183 3182 3181 3179 3177 3177 3177 3177 3176 3175 3172 3172 3171 3172 3170 3169 3170 3173
3161 3161 3160 3160 3159 3159 3159 3158 3158 3157 3157 3157 3158 3159 3160 3162 3166 3171 3173 3175 3177 3178 3180 3182 3183 3182 3182 3182 3183 3181 3179 3178 3178 3178 3178 3176 3174 3173 3174 3174 3172 3169 3168 3170 3172
3160 3159 3158 3158 3157 3157 3156 3156 3156 3155 3155 3155 3156 3156 3158 3160 3166 3167 3170 3173 3175 3177 3179 3180 3182 3181 3180 3179 3180 3178 3178 3180 3179 3178 3179 3176 3173 3172 3172 3172 3169 3168 3170 3172 3173
3158 3157 3157 3156 3155 3155 3154 3154 3154 3153 3153 3153 3153 3154 3155 3158 3161 3163 3167 3170 3172 3175 3177 3179 3179 3179 3179 3179 3178 3179 3179 3180 3180 3179 3179 3177 3176 3174 3173 3173 3170 3170 3172 3174 3175
3155 3155 3155 3154 3153 3153 3152 3152 3152 3151 3151 3151 3152 3152 3153 3156 3156 3159 3163 3167 3170 3172 3175 3176 3177 3178 3178 3179 3179 3178 3179 3178 3179 3178 3178 3178 3177 3176 3175 3174 3172 3170 3170 3172 3174
3153 3152 3151 3151 3151 3150 3150 3149 3149 3149 3149 3149 3149 3150 3151 3152 3152 3156 3160 3164 3167 3171 3173 3174 3176 3178 3178 3178 3179 3178 3180 3179 3179 3179 3178 3179 3179 3177 3175 3175 3175 3175 3173 3171 3173
3150 3149 3148 3148 3148 3147 3147 3147 3146 3147 3147 3147 3147 3148 3149 3149 3152 3155 3159 3162 3166 3168 3171 3173 3174 3176 3178 3178 3179 3179 3180 3180 3179 3179 3180 3179 3178 3176 3175 3175 3176 3176 3174 3174 3173
3147 3146 3146 3145 3145 3145 3144 3144 3144 3144 3144 3144 3146 3146 3148 3148 3150 3152 3156 3161 3162 3166 3169 3171 3173 3175 3177 3178 3179 3179 3178 3178 3179 3179 3181 3178 3176 3176 3176 3176 3176 3177 3176 3176 3175
3144 3143 3143 3143 3143 3143 3142 3141 3140 3140 3141 3142 3143 3147 3146 3146 3146 3147 3152 3156 3158 3162 3166 3169 3172 3173 3176 3178 3179 3179 3177 3177 3181 3182 3180 3178 3175 3175 3175 3175 3176 3176 3176 3176 3175
3141 3140 3140 3139 3140 3140 3140 3139 3141 3141 3139 3141 3141 3142 3143 3144 3146 3147 3149 3152 3155 3158 3161 3164 3169 3170 3175 3178 3179 3178 3177 3177 3175 3179 3177 3176 3174 3175 3175 3174 3173 3174 3176 3175 3175
3138 3137 3137 3137 3138 3138 3137 3136 3138 3139 3138 3137 3138 3139 3140 3142 3144 3146 3147 3149 3151 3154 3158 3162 3162 3169 3173 3176 3177 3177 3176 3176 3173 3176 3175 3173 3172 3173 3173 3172 3171 3172 3174 3175 3175
3135 3134 3134 3135 3136 3136 3135 3136 3136 3136 3136 3135 3134 3136 3138 3141 3143 3145 3147 3147 3150 3152 3155 3157 3162 3166 3169 3173 3175 3175 3176 3176 3175 3173 3173 3172 3172 3171 3170 3168 3169 3169 3171 3173 3174
3133 3132 3132 3132 3136 3134 3135 3136 3136 3137 3136 3135 3134 3135 3137 3139 3142 3143 3145 3148 3148 3151 3154 3156 3160 3162 3165 3168 3173 3172 3174 3174 3173 3172 3171 3172 3171 3165 3166 3166 3167 3168 3169 3172 3174
3130 3130 3130 3130 3131 3133 3136 3136 3136 3138 3138 3137 3135 3136 3137 3140 3142 3141 3143 3146 3148 3150 3153 3155 3157 3160 3162 3166 3171 3169 3172 3171 3171 3172 3172 3173 3170 3164 3162 3162 3163 3166 3168 3170 3173
3127 3127 3127 3128 3129 3132 3134 3135 3137 3140 3135 3136 3136 3137 3137 3138 3141 3140 3142 3146 3149 3149 3151 3152 3155 3157 3160 3163 3166 3168 3169 3169 3169 3168 3171 3170 3169 3163 3161 3159 3162 3166 3167 3169 3171
3125 3124 3125 3125 3127 3130 3132 3135 3138 3135 3136 3137 3136 3136 3137 3138 3139 3142 3143 3145 3146 3148 3148 3149 3150 3154 3157 3159 3162 3164 3166 3167 3168 3167 3168 3166 3166 3161 3159 3157 3161 3163 3167 3169 3170
3122 3122 3123 3123 3124 3128 3131 3135 3135 3133 3134 3135 3132 3134 3136 3138 3139 3141 3141 3142 3143 3145 3146 3147 3148 3150 3154 3158 3161 3161 3162 3163 3170 3168 3162 3162 3162 3160 3157 3157 3159 3162 3163 3167 3167
3120 3120 3120 3121 3124 3126 3130 3131 3131 3133 3134 3133 3131 3133 3136 3138 3140 3141 3139 3139 3140 3140 3145 3144 3144 3148 3152 3155 3158 3158 3157 3159 3160 3159 3160 3161 3160 3159 3155 3156 3157 3158 3160 3162 3164
3117 3117 3119 3120 3123 3125 3128 3129 3131 3133 3134 3134 3134 3135 3136 3137 3138 3138 3137 3136 3136 3138 3141 3143 3143 3145 3149 3151 3154 3154 3156 3156 3156 3160 3163 3158 3157 3155 3153 3152 3153 3155 3156 3158 3162
3115 3115 3117 3119 3121 3124 3125 3128 3130 3133 3133 3133 3133 3134 3136 3136 3136 3135 3134 3135 3135 3136 3138 3139 3143 3142 3144 3146 3149 3151 3150 3152 3152 3153 3153 3158 3152 3151 3152 3151 3152 3153 3154 3155 3158
3113 3115 3116 3117 3122 3122 3124 3126 3128 3130 3131 3131 3132 3133 3135 3134 3134 3134 3133 3133 3132 3130 3134 3135 3138 3138 3141 3143 3144 3145 3145 3146 3147 3149 3148 3148 3146 3148 3149 3150 3150 3151 3152 3156 3158
3111 3114 3115 3116 3119 3121 3122 3123 3123 3127 3127 3129 3130 3130 3131 3131 3132 3131 3131 3132 3131 3129 3130 3131 3134 3134 3135 3140 3141 3141 3141 3140 3141 3143 3143 3144 3144 3145 3145 3146 3148 3149 3149 3151 3150
3111 3112 3114 3115 3117 3119 3119 3121 3122 3124 3125 3124 3125 3127 3126 3127 3128 3128 3129 3131 3130 3129 3127 3127 3128 3131 3133 3135 3139 3139 3139 3139 3138 3140 3140 3139 3139 3140 3140 3140 3144 3145 3146 3150 3149
3109 3109 3110 3113 3115 3116 3118 3119 3120 3120 3122 3123 3124 3124 3123 3124 3125 3126 3126 3127 3128 3127 3126 3125 3125 3126 3129 3131 3133 3135 3135 3135 3135 3136 3136 3135 3134 3133 3134 3136 3139 3140 3143 3146 3146
3108 3108 3110 3112 3113 3115 3116 3117 3117 3119 3119 3120 3121 3121 3121 3122 3122 3123 3124 3123 3123 3123 3122 3123 3123 3123 3126 3128 3128 3129 3131 3131 3131 3130 3131 3133 3132 3129 3130 3133 3135 3136 3139 3141 3143
3104 3105 3108 3110 3111 3114 3114 3115 3116 3116 3117 3117 3118 3119 3117 3118 3118 3119 3119 3120 3120 3120 3120 3121 3121 3122 3122 3123 3124 3125 3126 3127 3126 3126 3127 3128 3129 3127 3126 3130 3131 3133 3134 3137 3140